Location: Grand Canyon Star Party (South Rim)
(36.0641°N, 112.1172°W)
Time: 14:24:45
(UTC-07:00)

OTV 5 (USA 277) - Visible Passes

Search period start: 18 January 2018 00:00
Search period end: 28 January 2018 00:00
Orbit: 404 x 417 km, 43.0° (Epoch: 07 September)

Date Brightness Start Highest point End Pass type
(mag) Time Alt. Az. Time Alt. Az. Time Alt. Az.
19 Jan ? 19:09:01 10° S 19:10:03 13° SSE 19:10:03 13° SSE visible
20 Jan ? 19:53:21 10° SW 19:54:32 20° SW 19:54:32 20° SW visible
21 Jan ? 19:02:33 10° SSW 19:05:39 35° SE 19:06:10 33° SE visible
22 Jan ? 18:12:02 10° SSW 18:14:41 22° SE 18:17:21 10° E visible
22 Jan ? 19:48:29 10° WSW 19:50:30 32° W 19:50:30 32° W visible
23 Jan ? 18:57:21 10° WSW 19:00:43 88° NNW 19:02:01 35° ENE visible
24 Jan ? 18:06:23 10° SW 18:09:40 58° SSE 18:12:59 10° ENE visible
24 Jan ? 19:44:03 10° W 19:46:14 28° NW 19:46:14 28° NW visible
25 Jan ? 18:52:44 10° W 18:55:58 42° NNW 18:57:40 23° NE visible
26 Jan ? 19:39:43 10° WNW 19:41:49 23° NNW 19:41:49 23° NNW visible
27 Jan ? 18:48:24 10° WNW 18:51:21 27° N 18:53:11 17° NE visible
